{"data":{"norad_id":63559,"epoch":"2026-05-25T02:57:20.987712Z","epoch_age_seconds":61448,"freshness":"FRESH","line1":"1 63559U 25075M   26145.12315958  .00131381  00000+0  10090-2 0  9997","line2":"2 63559  43.0006  52.7227 0002446 258.0489 102.0105 15.70891113 65275","mean_motion":15.70891113,"eccentricity":0.0002446,"inclination_deg":43.0006,"raan_deg":52.7227,"arg_perigee_deg":258.0489,"mean_anomaly_deg":102.0105,"bstar":0.001009,"rev_number":6527,"period_min":91.667715736832,"perigee_km":354.70171974032,"apogee_km":357.9962302793,"semimajor_km":6734.4859750098,"source":"CELESTRAK","updated_at":"2026-05-25T13:38:20.042934Z"}}